Location: Peterborough
(44.3091°N, 78.3197°W)
Time: 18:31:56
(UTC-04:00)

Vanguard 2 Rocket - Pass Details

Date: 23 March 2023
Orbit: 554 x 3314 km, 32.9° (Epoch: 05 June)

Event Time Altitude Azimuth Distance (km) Brightness Sun altitude
Rises 01:39:59 0° 270° (W) 5,288 10.8 -44.5°
Enters shadow 01:41:42 - 267° (W) 4,919 10.5 -44.5°
Exits shadow 02:13:35 10° 137° (SE) 6,264 10.9 -43.2°
Sets 02:18:55 0° 132° (SE) 7,269 11.3 -42.9°
